DW4879 Weather Reports


time (UTC)temp
C
wind
direction
speed
KPH
gust
KPH
rain 1hr
cm
rain 24hr
cm
rain mn
cm
humidity
%
barometer
mb
20260902104101 13 103 8.0 11.3 0.00 0.00 0.00 58 1024.1
20260902103504 14 127 6.4 9.7 0.00 0.00 0.00 58 1024.1
20260902103116 14 117 6.4 9.7 0.00 0.00 0.00 58 1024.0
20260902102553 14 109 6.4 9.7 0.00 0.00 0.00 57 1023.9
20260902102059 15 115 4.8 9.7 0.00 0.00 0.00 57 1024.0
20260902101503 15 146 4.8 9.7 0.00 0.00 0.00 57 1024.0
20260902101009 15 137 4.8 8.0 0.00 0.00 0.00 56 1024.0
20260902100517 15 146 4.8 8.0 0.00 0.00 0.00 55 1023.9
20260902100126 15 131 4.8 9.7 0.00 0.00 0.00 54 1023.8
20260902095553 16 134 3.2 9.7 0.00 0.00 0.00 54 1023.8
20260902095101 16 107 4.8 9.7 0.00 0.00 0.00 52 1023.8
20260902094504 16 102 3.2 6.4 0.00 0.00 0.00 52 1023.7
20260902094101 16 106 4.8 6.4 0.00 0.00 0.00 52 1023.7
20260902093504 16 111 4.8 6.4 0.00 0.00 0.00 51 1023.8
20260902093114 16 97 3.2 6.4 0.00 0.00 0.00 51 1023.8
20260902092550 16 92 1.6 4.8 0.00 0.00 0.00 51 1023.7
20260902092058 16 102 3.2 6.4 0.00 0.00 0.00 50 1023.8
20260902091501 16 29 3.2 4.8 0.00 0.00 0.00 50 1023.8
20260902091009 16 29 1.6 6.4 0.00 0.00 0.00 50 1023.7
20260902090516 16 28 3.2 8.0 0.00 0.00 0.00 50 1023.7
20260902090028 16 34 4.8 6.4 0.00 0.00 0.00 52 1023.8
20260902085531 16 42 3.2 6.4 0.00 0.00 0.00 52 1023.8
20260902085041 16 38 3.2 6.4 0.00 0.00 0.00 54 1023.8
20260902084548 16 34 3.2 4.8 0.00 0.00 0.00 54 1023.8
20260902084058 16 34 1.6 3.2 0.00 0.00 0.00 54 1023.8
20260902083546 16 34 1.6 3.2 0.00 0.00 0.00 52 1023.8
20260902083057 16 34 1.6 1.6 0.00 0.00 0.00 50 1023.8
20260902082549 17 34 0.0 3.2 0.00 0.00 0.00 49 1023.9
20260902082037 17 34 1.6 3.2 0.00 0.00 0.00 50 1023.9
20260902081548 17 34 3.2 3.2 0.00 0.00 0.00 50 1023.9
20260902081053 17 23 0.0 3.2 0.00 0.00 0.00 51 1023.9
20260902080601 17 319 0.0 3.2 0.00 0.00 0.00 50 1024.0
20260902080055 17 212 0.0 3.2 0.00 0.00 0.00 49 1024.0
20260902075600 17 212 0.0 3.2 0.00 0.00 0.00 49 1024.0
20260902075005 17 246 0.0 4.8 0.00 0.00 0.00 48 1024.2
20260902074514 17 158 1.6 4.8 0.00 0.00 0.00 47 1024.1
20260902074003 17 30 0.0 4.8 0.00 0.00 0.00 46 1023.9
20260902073557 17 30 1.6 4.8 0.00 0.00 0.00 47 1023.9
20260902073001 16 30 1.6 3.2 0.00 0.00 0.00 47 1023.9
20260902072602 16 30 0.0 4.8 0.00 0.00 0.00 47 1023.9
20260902072002 16 30 1.6 4.8 0.00 0.00 0.00 48 1023.8
20260902071603 16 30 1.6 4.8 0.00 0.00 0.00 49 1023.8
20260902071005 16 13 1.6 3.2 0.00 0.00 0.00 51 1023.9
20260902070513 16 360 1.6 4.8 0.00 0.00 0.00 51 1023.9
20260902070104 16 360 1.6 4.8 0.00 0.00 0.00 51 1023.9
20260902065507 16 333 0.0 3.2 0.00 0.00 0.00 51 1023.9
20260902065015 17 325 0.0 9.7 0.00 0.00 0.00 51 1023.9
20260902064525 17 351 3.2 12.9 0.00 0.00 0.00 50 1023.9
20260902064032 17 333 4.8 12.9 0.00 0.00 0.00 50 1023.8
20260902063539 17 321 6.4 19.3 0.00 0.00 0.00 49 1023.9
20260902063047 18 281 3.2 19.3 0.00 0.00 0.00 49 1023.8
20260902062559 18 277 4.8 9.7 0.00 0.00 0.00 48 1023.8
20260902062046 18 125 3.2 4.8 0.00 0.00 0.00 46 1023.6
20260902061615 18 108 1.6 4.8 0.00 0.00 0.00 44 1023.5
20260902061104 19 140 1.6 4.8 0.00 0.00 0.00 43 1023.6
20260902060503 19 143 1.6 6.4 0.00 0.00 0.00 43 1023.6
20260902060059 19 131 3.2 6.4 0.00 0.00 0.00 42 1023.6
20260902055601 19 110 3.2 4.8 0.00 0.00 0.00 41 1023.6
20260902055006 19 103 3.2 4.8 0.00 0.00 0.00 41 1023.6
20260902054602 19 61 1.6 4.8 0.00 0.00 0.00 41 1023.6
20260902054005 20 39 0.0 3.2 0.00 0.00 0.00 42 1023.6
20260902053603 20 39 0.0 6.4 0.00 0.00 0.00 42 1023.6
20260902053007 19 60 3.2 8.0 0.00 0.00 0.00 40 1023.5
20260902052602 19 57 4.8 8.0 0.00 0.00 0.00 40 1023.6
20260902052058 19 55 3.2 8.0 0.00 0.00 0.00 42 1023.5
20260902051545 20 101 3.2 8.0 0.00 0.00 0.00 42 1023.5
20260902051053 20 57 1.6 6.4 0.00 0.00 0.00 41 1023.5
20260902050546 20 51 1.6 6.4 0.00 0.00 0.00 41 1023.5
20260902050054 20 28 3.2 6.4 0.00 0.00 0.00 41 1023.4
20260902045601 20 19 4.8 8.0 0.00 0.00 0.00 41 1023.3
20260902045004 20 30 4.8 8.0 0.00 0.00 0.00 41 1023.4
20260902044559 20 24 3.2 8.0 0.00 0.00 0.00 40 1023.4
20260902044002 20 21 3.2 8.0 0.00 0.00 0.00 40 1023.4
20260902043559 20 35 3.2 8.0 0.00 0.00 0.00 41 1023.3
20260902043052 20 19 3.2 8.0 0.00 0.00 0.00 40 1023.4
20260902042557 20 13 4.8 9.7 0.00 0.00 0.00 40 1023.4
20260902042050 20 24 4.8 9.7 0.00 0.00 0.00 40 1023.4
20260902041616 20 24 3.2 6.4 0.00 0.00 0.00 41 1023.3
20260902041105 20 22 3.2 6.4 0.00 0.00 0.00 40 1023.3
20260902040508 21 24 1.6 6.4 0.00 0.00 0.00 40 1023.2
20260902040001 21 19 3.2 6.4 0.00 0.00 0.00 40 1023.3
20260902035509 21 21 3.2 4.8 0.00 0.00 0.00 40 1023.2
20260902035105 21 24 3.2 4.8 0.00 0.00 0.00 40 1023.2
20260902034558 21 30 3.2 6.4 0.00 0.00 0.00 39 1023.2
20260902034001 21 17 3.2 4.8 0.00 0.00 0.00 39 1023.1
20260902033558 21 19 3.2 8.0 0.00 0.00 0.00 39 1023.1
20260902033051 22 30 3.2 8.0 0.00 0.00 0.00 39 1023.1
20260902032557 22 25 3.2 9.7 0.00 0.00 0.00 39 1023.1
20260902032050 22 33 4.8 9.7 0.00 0.00 0.00 39 1023.0
20260902031614 22 36 3.2 6.4 0.00 0.00 0.00 42 1023.0
20260902031001 22 28 3.2 6.4 0.00 0.00 0.00 42 1023.0
20260902030508 22 347 0.0 3.2 0.00 0.00 0.00 41 1022.8
20260902030103 22 347 0.0 3.2 0.00 0.00 0.00 41 1022.9
20260902025507 23 347 0.0 3.2 0.00 0.00 0.00 42 1022.9
20260902025014 23 347 1.6 3.2 0.00 0.00 0.00 43 1022.8
20260902024533 23 255 0.0 3.2 0.00 0.00 0.00 40 1022.7
20260902024030 23 255 0.0 3.2 0.00 0.00 0.00 39 1022.7
20260902023538 23 255 0.0 3.2 0.00 0.00 0.00 40 1022.7
20260902023059 23 255 0.0 3.2 0.00 0.00 0.00 39 1022.6
20260902022553 23 255 0.0 3.2 0.00 0.00 0.00 39 1022.6
20260902022102 23 255 0.0 3.2 0.00 0.00 0.00 39 1022.6
20260902021513 23 255 0.0 4.8 0.00 0.00 0.00 39 1022.5
20260902021102 24 256 1.6 4.8 0.00 0.00 0.00 38 1022.5
20260902020502 24 240 0.0 3.2 0.00 0.00 0.00 38 1022.5
20260902020051 25 231 0.0 3.2 0.00 0.00 0.00 38 1022.5
20260902015558 25 216 0.0 3.2 0.00 0.00 0.00 38 1022.5
20260902015002 25 226 0.0 3.2 0.00 0.00 0.00 37 1022.3
20260902014556 25 226 0.0 3.2 0.00 0.00 0.00 36 1022.4
20260902014105 25 212 0.0 3.2 0.00 0.00 0.00 35 1022.3
20260902013602 25 225 0.0 3.2 0.00 0.00 0.00 35 1022.3
20260902013105 26 252 0.0 3.2 0.00 0.00 0.00 34 1022.3
20260902012557 26 252 1.6 6.4 0.00 0.00 0.00 34 1022.4
20260902012001 26 277 1.6 6.4 0.00 0.00 0.00 33 1022.3
20260902011509 26 285 3.2 8.0 0.00 0.00 0.00 33 1022.3
20260902011103 26 296 3.2 11.3 0.00 0.00 0.00 32 1022.4
20260902010507 26 286 4.8 11.3 0.00 0.00 0.00 32 1022.4
20260902010109 26 259 1.6 6.4 0.00 0.00 0.00 32 1022.4
20260902005553 26 258 1.6 4.8 0.00 0.00 0.00 32 1022.3
20260902005101 27 312 1.6 6.4 0.00 0.00 0.00 32 1022.4
20260902004507 27 263 1.6 11.3 0.00 0.00 0.00 32 1022.4
20260902004015 27 217 3.2 9.7 0.00 0.00 0.00 31 1022.4
20260902003607 27 289 1.6 9.7 0.00 0.00 0.00 31 1022.5
20260902003009 27 278 3.2 12.9 0.00 0.00 0.00 31 1022.5
20260902002604 27 195 3.2 8.0 0.00 0.00 0.00 31 1022.5
20260902002055 27 248 3.2 9.7 0.00 0.00 0.00 31 1022.4
20260902001612 27 251 3.2 9.7 0.00 0.00 0.00 32 1022.5
20260902001054 27 306 1.6 14.5 0.00 0.00 0.00 31 1022.5
20260902000605 27 309 9.7 14.5 0.00 0.00 0.00 31 1022.6
20260902000055 27 297 9.7 16.1 0.00 0.00 0.00 32 1022.6
20260901235545 27 268 6.4 16.1 0.00 0.00 0.00 31 1022.6
20260901235053 27 229 8.0 14.5 0.00 0.00 0.00 31 1022.7
20260901234607 27 301 6.4 19.3 0.00 0.00 0.00 30 1022.7
20260901234004 28 309 8.0 19.3 0.00 0.00 0.00 31 1022.7
20260901233602 28 177 1.6 12.9 0.00 0.00 0.00 31 1022.8
20260901233010 28 178 3.2 17.7 0.00 0.00 0.00 30 1022.8
20260901232604 27 254 6.4 17.7 0.00 0.00 0.00 31 1022.8
20260901232052 28 292 6.4 17.7 0.00 0.00 0.00 31 1022.8
20260901231605 28 280 6.4 17.7 0.00 0.00 0.00 31 1022.9
20260901231055 28 298 3.2 14.5 0.00 0.00 0.00 30 1022.8
20260901230542 28 155 4.8 22.5 0.00 0.00 0.00 29 1022.8
20260901230047 28 324 4.8 22.5 0.00 0.00 0.00 29 1022.9
20260901225556 28 266 3.2 17.7 0.00 0.00 0.00 30 1022.8
20260901225103 28 215 6.4 17.7 0.00 0.00 0.00 30 1022.9
20260901224554 28 304 4.8 12.9 0.00 0.00 0.00 30 1022.9
20260901224101 28 290 3.2 14.5 0.00 0.00 0.00 30 1022.9
20260901223555 28 250 4.8 14.5 0.00 0.00 0.00 29 1022.9
20260901223045 28 287 3.2 12.9 0.00 0.00 0.00 31 1023.0
20260901222552 28 267 8.0 14.5 0.00 0.00 0.00 30 1023.0
20260901222046 28 292 4.8 12.9 0.00 0.00 0.00 31 1023.0
20260901221554 28 171 4.8 14.5 0.00 0.00 0.00 31 1023.0
20260901221100 28 234 8.0 16.1 0.00 0.00 0.00 31 1023.1
20260901220504 28 292 4.8 12.9 0.00 0.00 0.00 32 1023.2
20260901220053 27 256 6.4 12.9 0.00 0.00 0.00 32 1023.1
20260901215601 27 280 6.4 22.5 0.00 0.00 0.00 32 1023.2
20260901215053 27 194 6.4 22.5 0.00 0.00 0.00 32 1023.2
20260901214608 27 292 9.7 16.1 0.00 0.00 0.00 31 1023.2
20260901214053 27 222 1.6 14.5 0.00 0.00 0.00 31 1023.4
20260901213601 27 321 3.2 14.5 0.00 0.00 0.00 32 1023.3
20260901213003 27 257 8.0 14.5 0.00 0.00 0.00 32 1023.4
20260901212559 27 271 0.0 19.3 0.00 0.00 0.00 33 1023.4
20260901212001 27 259 9.7 20.9 0.00 0.00 0.00 34 1023.5
20260901211558 27 283 9.7 20.9 0.00 0.00 0.00 34 1023.6
20260901211050 27 281 4.8 9.7 0.00 0.00 0.00 34 1023.6
20260901210555 27 159 8.0 16.1 0.00 0.00 0.00 33 1023.8
20260901210108 27 219 4.8 16.1 0.00 0.00 0.00 33 1023.8
20260901205508 27 258 3.2 16.1 0.00 0.00 0.00 31 1023.9
20260901205103 27 242 4.8 12.9 0.00 0.00 0.00 31 1023.9
20260901204502 27 209 4.8 12.9 0.00 0.00 0.00 32 1024.0
20260901204100 26 313 1.6 12.9 0.00 0.00 0.00 34 1024.0
20260901203553 26 252 4.8 12.9 0.00 0.00 0.00 35 1024.0
20260901203119 26 329 4.8 12.9 0.00 0.00 0.00 35 1024.2
20260901202550 26 267 1.6 12.9 0.00 0.00 0.00 35 1024.3
20260901202044 26 286 3.2 12.9 0.00 0.00 0.00 36 1024.3
20260901201556 26 317 8.0 12.9 0.00 0.00 0.00 35 1024.4
20260901201042 26 194 3.2 17.7 0.00 0.00 0.00 37 1024.5
20260901200550 26 269 6.4 17.7 0.00 0.00 0.00 37 1024.6
20260901200057 26 213 4.8 16.1 0.00 0.00 0.00 38 1024.5
20260901195605 26 277 0.0 6.4 0.00 0.00 0.00 39 1024.6
20260901195058 26 254 3.2 8.0 0.00 0.00 0.00 38 1024.7
20260901194607 26 44 1.6 11.3 0.00 0.00 0.00 38 1024.8
20260901194057 26 307 1.6 11.3 0.00 0.00 0.00 37 1024.8
20260901193549 26 249 3.2 12.9 0.00 0.00 0.00 38 1024.8
20260901193102 26 223 3.2 12.9 0.00 0.00 0.00 38 1024.8
20260901192606 26 225 3.2 9.7 0.00 0.00 0.00 40 1024.8
20260901192008 25 225 3.2 12.9 0.00 0.00 0.00 42 1025.0
20260901191516 25 279 4.8 8.0 0.00 0.00 0.00 43 1025.0
20260901191024 25 288 3.2 9.7 0.00 0.00 0.00 42 1025.1
20260901190532 25 248 4.8 11.3 0.00 0.00 0.00 42 1025.1
20260901190039 25 289 1.6 14.5 0.00 0.00 0.00 44 1025.0
20260901185547 25 288 4.8 14.5 0.00 0.10 0.00 43 1025.1
20260901185054 25 204 3.2 12.9 0.00 0.10 0.00 46 1025.2
20260901184603 25 298 6.4 12.9 0.00 0.10 0.00 43 1025.2
20260901184003 25 333 1.6 14.5 0.00 0.10 0.00 44 1025.3
20260901183559 25 308 1.6 11.3 0.00 0.10 0.00 45 1025.4
20260901183000 24 252 1.6 6.4 0.00 0.10 0.00 47 1025.5
20260901182600 25 347 1.6 12.9 0.00 0.10 0.00 47 1025.5
20260901182003 25 236 4.8 12.9 0.00 0.10 0.00 48 1025.4
20260901181559 24 210 1.6 12.9 0.00 0.10 0.00 46 1025.4
20260901181003 24 282 6.4 11.3 0.00 0.10 0.00 47 1025.5
20260901180513 24 302 1.6 8.0 0.00 0.10 0.00 45 1025.5
20260901180039 24 155 3.2 12.9 0.00 0.10 0.00 46 1025.4
20260901175545 23 247 4.8 12.9 0.00 0.13 0.00 45 1025.5
20260901175053 23 355 3.2 12.9 0.00 0.13 0.00 46 1025.4
20260901174604 23 291 6.4 12.9 0.00 0.13 0.00 45 1025.5
20260901174006 23 254 3.2 9.7 0.00 0.13 0.00 47 1025.4
20260901173559 23 34 1.6 6.4 0.00 0.13 0.00 46 1025.5
20260901173001 24 261 3.2 6.4 0.00 0.13 0.00 45 1025.6
20260901172559 24 190 1.6 9.7 0.00 0.13 0.00 46 1025.5
20260901172052 23 241 3.2 9.7 0.00 0.13 0.00 49 1025.5
20260901171547 23 242 1.6 6.4 0.00 0.13 0.00 48 1025.5
20260901171052 23 107 3.2 6.4 0.00 0.13 0.00 48 1025.6
20260901170602 23 162 3.2 8.0 0.00 0.13 0.00 50 1025.5
20260901170002 23 192 1.6 8.0 0.00 0.13 0.00 53 1025.5
20260901165601 22 123 1.6 6.4 0.00 0.13 0.00 51 1025.5
20260901165002 22 116 1.6 11.3 0.00 0.13 0.00 49 1025.5
20260901164604 22 128 3.2 11.3 0.00 0.13 0.00 51 1025.5
20260901164002 22 107 1.6 6.4 0.00 0.13 0.00 51 1025.6
20260901163559 21 159 1.6 9.7 0.00 0.13 0.00 53 1025.6
20260901163049 21 24 4.8 9.7 0.00 0.13 0.00 54 1025.6
20260901162557 21 12 3.2 9.7 0.00 0.13 0.00 54 1025.5
20260901162052 21 76 3.2 11.3 0.00 0.13 0.00 55 1025.6
20260901161559 21 84 0.0 11.3 0.00 0.13 0.00 56 1025.4
20260901161050 20 88 4.8 9.7 0.00 0.13 0.00 60 1025.4
20260901160540 20 104 1.6 8.0 0.00 0.13 0.00 59 1025.5
20260901160055 20 65 3.2 8.0 0.00 0.13 0.00 57 1025.5
20260901155557 20 54 3.2 9.7 0.00 0.13 0.00 59 1025.5
20260901155105 20 40 4.8 9.7 0.00 0.13 0.00 59 1025.6
20260901154559 19 105 3.2 12.9 0.00 0.13 0.00 59 1025.7
20260901154102 19 50 4.8 12.9 0.00 0.13 0.00 58 1025.7
20260901153554 19 90 1.6 11.3 0.00 0.13 0.00 61 1025.7
20260901153119 19 77 3.2 9.7 0.00 0.13 0.00 60 1025.7
20260901152555 18 126 4.8 12.9 0.00 0.13 0.00 63 1025.6
20260901152050 18 118 6.4 12.9 0.00 0.13 0.00 63 1025.6
20260901151538 18 103 0.0 12.9 0.00 0.13 0.00 67 1025.6
20260901151046 18 130 8.0 12.9 0.00 0.13 0.00 67 1025.5
20260901150538 18 119 8.0 12.9 0.00 0.13 0.00 67 1025.4
20260901150047 18 138 4.8 11.3 0.00 0.13 0.00 67 1025.5
20260901145555 18 88 6.4 11.3 0.00 0.13 0.00 67 1025.5
20260901145103 18 130 6.4 9.7 0.00 0.13 0.00 64 1025.4
20260901144554 18 94 4.8 9.7 0.00 0.13 0.00 65 1025.4
20260901144101 17 93 1.6 8.0 0.00 0.13 0.00 65 1025.4
20260901143554 17 33 3.2 6.4 0.00 0.13 0.00 67 1025.5
20260901143046 17 32 3.2 6.4 0.00 0.13 0.00 67 1025.5
20260901142555 17 46 3.2 8.0 0.00 0.13 0.00 68 1025.4
20260901142047 16 63 3.2 6.4 0.00 0.13 0.00 69 1025.4
20260901141554 16 84 3.2 6.4 0.00 0.13 0.00 71 1025.6
20260901141105 16 105 1.6 6.4 0.00 0.13 0.00 72 1025.5
20260901140505 16 49 1.6 8.0 0.00 0.13 0.00 73 1025.4
20260901140011 15 80 1.6 9.7 0.00 0.13 0.00 74 1025.5
20260901135530 15 111 1.6 6.4 0.00 0.13 0.00 75 1025.5
20260901135043 15 98 0.0 6.4 0.00 0.13 0.00 77 1025.5
20260901134552 14 74 1.6 6.4 0.00 0.13 0.00 77 1025.5
20260901134059 14 57 1.6 6.4 0.00 0.13 0.00 78 1025.4
20260901133513 13 46 1.6 8.0 0.00 0.13 0.00 80 1025.3
20260901133027 13 53 3.2 8.0 0.00 0.13 0.00 81 1025.3
20260901132537 13 38 3.2 8.0 0.00 0.13 0.00 82 1025.2
20260901132012 13 40 1.6 6.4 0.00 0.13 0.00 84 1025.1
20260901131531 12 82 3.2 6.4 0.00 0.13 0.00 84 1025.1
20260901131049 12 77 3.2 8.0 0.00 0.13 0.00 85 1025.1
20260901130559 12 94 3.2 8.0 0.00 0.13 0.00 85 1025.1
20260901130502 12 85 3.2 8.0 0.00 0.13 0.00 84 1025.1
20260901130015 12 77 4.8 8.0 0.00 0.13 0.00 84 1025.2
20260901125529 12 77 4.8 8.0 0.00 0.13 0.00 84 1025.1
20260901125052 12 75 3.2 9.7 0.00 0.13 0.00 84 1025.0
20260901124502 13 111 4.8 9.7 0.00 0.13 0.00 83 1024.9
20260901124014 13 119 3.2 6.4 0.00 0.13 0.00 83 1024.8
20260901123525 13 103 3.2 9.7 0.00 0.13 0.00 82 1024.9
20260901123046 13 102 3.2 9.7 0.00 0.13 0.00 82 1024.8
20260901122503 13 105 4.8 9.7 0.00 0.13 0.00 81 1024.7
20260901122017 13 74 4.8 16.1 0.00 0.13 0.00 81 1024.7
20260901121540 13 63 6.4 16.1 0.00 0.13 0.00 82 1024.7
20260901121052 13 81 4.8 9.7 0.00 0.13 0.00 82 1024.7
20260901120507 13 85 4.8 12.9 0.00 0.13 0.00 83 1024.7
20260901120019 13 52 4.8 12.9 0.00 0.13 0.00 83 1024.7
20260901115537 12 47 4.8 8.0 0.00 0.13 0.00 85 1024.8
20260901115051 12 67 4.8 8.0 0.00 0.13 0.00 86 1024.7
20260901114558 12 38 3.2 4.8 0.00 0.13 0.00 86 1024.8
20260901114009 12 40 3.2 8.0 0.00 0.13 0.00 86 1024.7
20260901113517 13 38 3.2 8.0 0.00 0.13 0.00 86 1024.7
20260901113028 13 69 1.6 6.4 0.00 0.13 0.00 86 1024.7
20260901112544 13 93 1.6 4.8 0.00 0.13 0.00 87 1024.7
20260901112056 13 79 1.6 6.4 0.00 0.13 0.00 87 1024.6
20260901111511 13 98 3.2 6.4 0.00 0.13 0.00 87 1024.7
20260901111026 13 101 1.6 4.8 0.00 0.13 0.00 86 1024.5
20260901110544 13 101 1.6 4.8 0.00 0.13 0.00 86 1024.6
20260901110055 13 101 3.2 4.8 0.00 0.13 0.00 86 1024.5
20260901105508 13 83 3.2 6.4 0.00 0.13 0.00 86 1024.5
20260901105025 13 81 3.2 6.4 0.00 0.13 0.00 86 1024.6
20260901104607 13 101 3.2 4.8 0.00 0.13 0.00 86 1024.7
20260901104501 13 101 3.2 4.8 0.00 0.13 0.00 86 1024.6